Weather History for La Grange, GA

Change the Weather History Date:

Saturday, November 2, 2013

  Actual Average Record
Temperature  
Mean Temperature 57 °F -  
Max Temperature 72 °F 72 °F 84 °F (1961)
Min Temperature 42 °F 47 °F 26 °F (1993)
Degree Days  
Heating Degree Days 8    
Growing Degree Days 7 (Base 50)    
Moisture  
Dew Point 45 °F    
Average Humidity 72    
Maximum Humidity 100    
Minimum Humidity 32    
Precipitation  
Precipitation 0.00 in - - ()
Sea Level Pressure  
Sea Level Pressure 29.93 in    
Wind  
Wind Speed 4 mph (NW)    
Max Wind Speed 20 mph    
Max Gust Speed 23 mph    
Visibility 8 miles    
Events Fog    
Averages and records for this station are not official NWS values.
T = Trace of Precipitation, MM = Missing Value Source: NWS Daily Summary

Daily Weather History Graph

Daily Weather History Graph

Search for Another Location

Airport:

Trip Planner

Search our weather history database for the weather conditions in past years. The results will help you decide how hot, cold, wet, or windy it might be!

Date:

Astronomy

Nov. 02, 2013 Rise Set
Actual Time 7:59 AM EDT 6:47 PM EDT
Civil Twilight 7:33 AM EDT 7:13 PM EDT
Nautical Twilight 7:04 AM EDT 7:42 PM EDT
Astronomical Twilight 6:35 AM EDT 8:11 PM EDT
Moon 6:58 AM EDT (11/2) 6:17 PM EDT (11/2)
Length of Visible Light 11h 39m
Length of Day
10h 48m
Waning Crescent, 1% of the Moon is Illuminated
Nov 2
Waning Crescent
Nov 3
New
Nov 10
First Quarter
Nov 17
Full
Nov 25
Last Quarter

Hourly Weather History & Observations

Time (EDT) Temp. Dew Point Humidity Pressure Visibility Wind Dir Wind Speed Gust Speed Precip Events Conditions
12:15 AM 54.3 °F 51.4 °F 90% 29.86 in 10.0 mi NW 4.6 mph - N/A   Clear
12:35 AM 53.6 °F 50.9 °F 91% 29.86 in 10.0 mi WNW 4.6 mph - N/A   Clear
12:55 AM 53.4 °F 50.7 °F 91% 29.86 in 10.0 mi Calm Calm - N/A   Clear
1:15 AM 52.7 °F 50.9 °F 94% 29.86 in 10.0 mi WNW 3.5 mph - N/A   Clear
1:35 AM 51.4 °F 49.3 °F 92% 29.86 in 10.0 mi NW 4.6 mph - N/A   Clear
1:55 AM 50.7 °F 48.4 °F 92% 29.87 in 10.0 mi NW 4.6 mph - N/A   Clear
2:15 AM 50.7 °F 48.2 °F 91% 29.87 in 10.0 mi Calm Calm - N/A   Clear
2:35 AM 47.7 °F 46.2 °F 95% 29.87 in 10.0 mi Calm Calm - N/A   Clear
2:55 AM 47.3 °F 46.8 °F 98% 29.87 in 1.0 mi Calm Calm - N/A   Mostly Cloudy
3:15 AM 47.3 °F 47.3 °F 100% 29.87 in 0.5 mi Calm Calm - N/A Fog Fog
3:35 AM 46.9 °F 46.8 °F 99% 29.87 in 1.8 mi Calm Calm - N/A   Mist
3:55 AM 47.3 °F 46.8 °F 98% 29.87 in 10.0 mi Calm Calm - N/A   Clear
4:15 AM 45.7 °F 45.0 °F 97% 29.87 in 10.0 mi Calm Calm - N/A   Clear
4:35 AM 45.7 °F 45.3 °F 99% 29.87 in 0.8 mi Calm Calm - N/A   Mostly Cloudy
4:55 AM 45.3 °F 45.1 °F 99% 29.87 in 0.5 mi Calm Calm - N/A Fog Fog
5:15 AM 45.0 °F 44.8 °F 99% 29.87 in 0.8 mi Calm Calm - N/A   Overcast
5:35 AM 45.0 °F 44.8 °F 99% 29.87 in 0.5 mi Calm Calm - N/A Fog Fog
5:55 AM 44.2 °F 44.2 °F 100% 29.87 in 2.0 mi Calm Calm - N/A   Clear
6:15 AM 43.2 °F 43.0 °F 99% 29.88 in 0.5 mi Calm Calm - N/A Fog Fog
6:35 AM 43.5 °F 43.5 °F 100% 29.87 in 0.5 mi Calm Calm - N/A Fog Fog
6:55 AM 43.9 °F 43.7 °F 99% 29.89 in 10.0 mi Calm Calm - N/A   Scattered Clouds
7:15 AM 42.8 °F 42.4 °F 99% 29.89 in 10.0 mi Calm Calm - N/A   Clear
7:35 AM 42.1 °F 41.5 °F 98% 29.91 in 10.0 mi Calm Calm - N/A   Clear
7:55 AM 42.4 °F 42.1 °F 99% 29.91 in 7.0 mi Calm Calm - N/A   Clear
8:15 AM 42.3 °F 41.9 °F 99% 29.92 in 7.0 mi Calm Calm - N/A   Clear
8:35 AM 43.2 °F 43.0 °F 99% 29.93 in 2.0 mi Calm Calm - N/A   Clear
8:55 AM 46.8 °F 46.6 °F 99% 29.94 in 10.0 mi Calm Calm - N/A   Clear
9:15 AM 50.2 °F 49.5 °F 97% 29.94 in 10.0 mi Calm Calm - N/A   Clear
9:35 AM 51.6 °F 50.9 °F 97% 29.94 in 10.0 mi Calm Calm - N/A   Clear
9:55 AM 54.5 °F 52.0 °F 91% 29.95 in 10.0 mi Calm Calm - N/A   Clear
10:15 AM 56.8 °F 53.2 °F 88% 29.95 in 10.0 mi Calm Calm - N/A   Clear
10:35 AM 59.5 °F 53.6 °F 81% 29.95 in 10.0 mi Calm Calm - N/A   Clear
10:55 AM 61.3 °F 53.1 °F 74% 29.95 in 10.0 mi Calm Calm - N/A   Clear
11:15 AM 64.2 °F 53.1 °F 67% 29.95 in 10.0 mi Calm Calm - N/A   Clear
11:35 AM 66.7 °F 51.6 °F 58% 29.95 in 10.0 mi Calm Calm - N/A   Clear
11:55 AM 69.3 °F 49.1 °F 49% 29.95 in 10.0 mi South 3.5 mph - N/A   Mostly Cloudy
1:15 PM 68.2 °F 50.7 °F 54% 29.95 in 10.0 mi WNW 6.9 mph - N/A   Overcast
1:35 PM 67.6 °F 50.2 °F 54% 29.94 in 10.0 mi NW 10.4 mph - N/A   Overcast
1:55 PM 68.9 °F 46.8 °F 45% 29.94 in 10.0 mi WNW 9.2 mph - N/A   Mostly Cloudy
2:15 PM 69.8 °F 45.1 °F 41% 29.92 in 10.0 mi NW 11.5 mph - N/A   Scattered Clouds
2:35 PM 70.0 °F 46.6 °F 43% 29.91 in 10.0 mi WNW 9.2 mph - N/A   Clear
2:55 PM 71.8 °F 45.7 °F 39% 29.91 in 10.0 mi WNW 12.7 mph 16.1 mph N/A   Scattered Clouds
3:15 PM 72.1 °F 45.1 °F 38% 29.91 in 10.0 mi NW 10.4 mph 19.6 mph N/A   Mostly Cloudy
3:35 PM 67.3 °F 43.7 °F 42% 29.90 in 10.0 mi NW 9.2 mph - N/A   Mostly Cloudy
3:55 PM 71.1 °F 39.7 °F 32% 29.90 in 10.0 mi NW 13.8 mph 20.7 mph N/A   Clear
4:15 PM 70.9 °F 39.6 °F 32% 29.90 in 10.0 mi WNW 16.1 mph 23.0 mph N/A   Clear
4:35 PM 68.9 °F 39.2 °F 34% 29.90 in 10.0 mi WNW 19.6 mph - N/A   Clear
4:55 PM 69.8 °F 38.3 °F 32% 29.90 in 10.0 mi WNW 13.8 mph 17.3 mph N/A   Clear
5:15 PM 69.6 °F 38.7 °F 32% 29.91 in 10.0 mi WNW 15.0 mph 20.7 mph N/A   Clear
5:35 PM 67.3 °F 38.8 °F 35% 29.92 in 10.0 mi WNW 15.0 mph 20.7 mph N/A   Clear
5:55 PM 67.3 °F 40.1 °F 37% 29.92 in 10.0 mi NW 11.5 mph 20.7 mph N/A   Clear
6:15 PM 66.4 °F 38.8 °F 36% 29.94 in 10.0 mi NW 11.5 mph - N/A   Clear
6:35 PM 63.3 °F 39.9 °F 42% 29.94 in 10.0 mi NW 11.5 mph - N/A   Clear
6:55 PM 62.8 °F 39.6 °F 42% 29.96 in 10.0 mi NNW 5.8 mph - N/A   Clear
7:15 PM 59.4 °F 40.5 °F 50% 29.97 in 10.0 mi Calm Calm - N/A   Clear
7:35 PM 57.2 °F 41.2 °F 55% 29.99 in 10.0 mi NNW 3.5 mph - N/A   Clear
7:55 PM 55.4 °F 43.0 °F 63% 29.99 in 10.0 mi NW 3.5 mph - N/A   Clear
8:15 PM 55.6 °F 44.1 °F 65% 30.01 in 10.0 mi Calm Calm - N/A   Scattered Clouds
8:35 PM 52.0 °F 44.4 °F 75% 30.02 in 10.0 mi WNW 3.5 mph - N/A   Mostly Cloudy
8:55 PM 52.5 °F 45.5 °F 77% 30.03 in 10.0 mi NW 3.5 mph - N/A   Scattered Clouds
9:15 PM 54.3 °F 42.1 °F 63% 30.04 in 10.0 mi NNW 5.8 mph - N/A   Scattered Clouds
9:35 PM 52.2 °F 41.9 °F 68% 30.05 in 10.0 mi NNW 4.6 mph - N/A   Scattered Clouds
9:55 PM 53.6 °F 41.7 °F 64% 30.05 in 10.0 mi NNW 6.9 mph - N/A   Clear
10:15 PM 53.1 °F 41.2 °F 64% 30.06 in 10.0 mi NNW 4.6 mph - N/A   Clear
10:35 PM 54.0 °F 41.0 °F 62% 30.06 in 10.0 mi NNW 4.6 mph - N/A   Clear
10:55 PM 52.0 °F 40.8 °F 66% 30.07 in 10.0 mi NNW 6.9 mph - N/A   Clear
11:15 PM 53.2 °F 40.5 °F 62% 30.07 in 10.0 mi NNW 5.8 mph - N/A   Clear
11:35 PM 51.6 °F 40.6 °F 66% 30.08 in 10.0 mi NNW 5.8 mph - N/A   Clear
11:55 PM 51.6 °F 40.3 °F 65% 30.08 in 10.0 mi NNW 4.6 mph - N/A   Clear